Molokai, HI

10:41 PM HST on July 25, 2017 (GMT -1000)
Molokai

Weather History for PHMK - May, 2014

Change the Weather History Date:

Monday, May 26, 2014

  Actual Average Record
Temperature  
Mean Temperature 76 °F -  
Max Temperature 82 °F 81 °F 86 °F (1986)
Min Temperature 71 °F 68 °F 64 °F (2015)
Cooling Degree Days 12    
Growing Degree Days 26 (Base 50)    
Moisture  
Dew Point 70 °F    
Average Humidity 84    
Maximum Humidity 96    
Minimum Humidity 67    
Precipitation  
Precipitation 0.08 in - - ()
Sea Level Pressure  
Sea Level Pressure 30.05 in    
Wind  
Wind Speed 8 mph (NE)    
Max Wind Speed 17 mph    
Max Gust Speed 26 mph    
Visibility 10 miles    
Events Rain    
Averages and records for this station are not official NWS values.
T = Trace of Precipitation, MM = Missing Value Source: NWS Daily Summary

Daily Weather History Graph

Daily Weather History Graph

Search for Another Location

Airport or City:

Trip Planner

Search our weather history database for the weather conditions in past years. The results will help you decide how hot, cold, wet, or windy it might be!

Date:

Astronomy

May. 26, 2014 Rise Set
Actual Time 5:47 AM HST 7:04 PM HST
Civil Twilight 5:22 AM HST 7:28 PM HST
Nautical Twilight 4:53 AM HST 7:57 PM HST
Astronomical Twilight 4:24 AM HST 8:27 PM HST
Moon 4:19 AM HST 5:31 PM HST
Length of Visible Light 14h 05m
Length of Day
13h 17m
Waning Crescent, 4% of the Moon is Illuminated
May 26
Waning Crescent
May 28
New
Jun 5
First Quarter
Jun 12
Full
Jun 19
Last Quarter

Hourly Weather History & Observations

Time (HST) Temp. Heat Index Dew Point Humidity Pressure Visibility Wind Dir Wind Speed Gust Speed Precip Events Conditions
12:54 AM 73.0 °F - 70.0 °F 90% 30.06 in 10.0 mi NE 4.6 mph - N/A   Mostly Cloudy
1:54 AM 71.1 °F - 69.1 °F 93% 30.03 in 10.0 mi North 6.9 mph - N/A   Mostly Cloudy
2:54 AM 71.1 °F - 68.0 °F 90% 30.03 in 10.0 mi ENE 5.8 mph - N/A   Overcast
3:54 AM 71.1 °F - 68.0 °F 90% 30.02 in 10.0 mi NNE 3.5 mph - N/A   Clear
4:54 AM 71.1 °F - 70.0 °F 96% 30.02 in 10.0 mi North 6.9 mph - N/A   Partly Cloudy
5:54 AM 72.0 °F - 70.0 °F 93% 30.05 in 10.0 mi NNE 4.6 mph - N/A   Overcast
6:54 AM 72.0 °F - 68.0 °F 87% 30.06 in 10.0 mi NNE 6.9 mph - N/A   Overcast
7:54 AM 75.0 °F - 70.0 °F 84% 30.08 in 10.0 mi Calm Calm - N/A   Partly Cloudy
8:54 AM 75.9 °F - 71.1 °F 85% 30.09 in 10.0 mi NE 3.5 mph - N/A   Mostly Cloudy
9:54 AM 75.9 °F - 72.0 °F 87% 30.09 in 10.0 mi NE 11.5 mph - N/A   Scattered Clouds
10:54 AM 79.0 °F - 71.1 °F 77% 30.07 in 10.0 mi NE 17.3 mph 25.3 mph 0.00 in   Mostly Cloudy
11:54 AM 82.0 °F 85.9 °F 70.0 °F 67% 30.06 in 10.0 mi NNE 12.7 mph 18.4 mph N/A   Scattered Clouds
12:54 PM 80.1 °F 83.6 °F 71.1 °F 74% 30.04 in 10.0 mi NE 15.0 mph 23.0 mph N/A   Scattered Clouds
1:54 PM 77.0 °F - 73.0 °F 88% 30.04 in 10.0 mi NE 15.0 mph 19.6 mph 0.01 in Rain Light Rain
2:54 PM 80.1 °F 84.2 °F 73.0 °F 79% 30.01 in 10.0 mi NE 16.1 mph 21.9 mph 0.07 in   Partly Cloudy
3:54 PM 80.1 °F 83.8 °F 72.0 °F 76% 30.01 in 10.0 mi NE 13.8 mph 23.0 mph N/A   Partly Cloudy
4:54 PM 77.0 °F - 69.1 °F 76% 30.01 in 10.0 mi NE 16.1 mph 26.5 mph N/A   Scattered Clouds
5:54 PM 75.9 °F - 70.0 °F 82% 30.01 in 10.0 mi NE 16.1 mph 26.5 mph N/A   Mostly Cloudy
6:54 PM 73.9 °F - 68.0 °F 82% 30.04 in 10.0 mi NNE 13.8 mph 23.0 mph N/A   Mostly Cloudy
7:54 PM 73.0 °F - 68.0 °F 84% 30.06 in 10.0 mi NNE 9.2 mph - N/A   Clear
8:54 PM 73.0 °F - 66.9 °F 81% 30.07 in 10.0 mi NE 8.1 mph - N/A   Partly Cloudy
9:54 PM 73.0 °F - 69.1 °F 87% 30.08 in 10.0 mi NNE 11.5 mph 20.7 mph N/A   Clear
10:54 PM 73.0 °F - 68.0 °F 84% 30.08 in 10.0 mi NNE 10.4 mph - N/A   Clear
11:54 PM 73.0 °F - 66.9 °F 81% 30.07 in 10.0 mi NE 10.4 mph - N/A   Clear